Regional Weather Roundup
Issued by NWS Midland/Odessa, TX

Skip options and go directly to product.
Home | Oldest Version | Previous Version | Current Version | All | Text Only | Save Text | Print | Product List | Glossary Off

Skip product version selection by date and time.   

516
ASUS44 KMAF 191310
RWRMAF
MIDLAND AREA WEATHER ROUNDUP
NATIONAL WEATHER SERVICE MIDLAND TX
800 AM CDT FRI SEP 19 2014

...IN SOUTHWEST TEXAS AND SOUTHEAST NEW MEXICO...

CITY           SKY/WX    TMP DP  RH WIND       PRES   REMARKS
ALPINE         CLOUDY    67  65  94 SW5       30.09R
ANDREWS        LGT RAIN  67  67  99 SE6       30.00R
ARTESIA        NOT AVBL
BIG SPRING     CLOUDY    72  69  90 E6        30.01R
CARLSBAD       LGT RAIN  68  32  26 SE9       29.95R
DRYDEN           N/A     76  71  85 SE8       29.91R
FORT STOCKTON  CLOUDY    71  67  87 E5        29.95R
GUAD PASS      FOG       62  62 100 E10       30.07F VSB 1/2
HOBBS          LGT RAIN  66  66 100 E10       30.01R FOG
MARFA          MOCLDY    64  64 100 SE5       30.07R
MIDLAND AIRPK  NOT AVBL
MIDLAND INTL   CLOUDY    69  67  93 SE7       29.99R
ODESSA         LGT RAIN  69  67  93 E6        30.00R
PECOS          CLOUDY    69  67  94 E8        29.93R
PRESIDIO       FAIR      73  67  82 NE5       29.93R
SEMINOLE       LGT RAIN  67  67  98 CALM      30.01R
SNYDER         RAIN      68  67  98 E6        30.01R
WINK           NOT AVBL
$$
...OTHER STATIONS IN TEXAS...

CITY           SKY/WX    TMP DP  RH WIND       PRES   REMARKS
ABILENE        CLOUDY    70  68  93 SE7       29.97S
AMARILLO       PTCLDY    62  62 100 S7        30.05R
AUSTIN         MOCLDY    75  75 100 N8        29.89R
BROWNSVILLE    CLEAR     79  77  94 SE3       29.82R FOG
CORPUS CHRISTI MOCLDY    77  75  93 CALM      29.84R
DALLAS FTW     PTCLDY    70  67  90 NE7       29.94R
DEL RIO        CLOUDY    76  71  85 E6        29.86R
EL PASO        MOCLDY    67  64  90 CALM      29.97R
HOUSTON INT    CLOUDY    75  73  93 VRB5      29.90R
LUBBOCK        CLOUDY    66  65  96 SE8       30.01S
SAN ANGELO     CLOUDY    70  68  93 E7        29.95R
SAN ANTONIO    MOCLDY    78  75  90 E6        29.89R
WACO           FOG       69  69 100 NE6       29.93R VSB 1/4
WICHITA FALLS  NOT AVBL
$$
...OTHER LOCATIONS IN NEW MEXICO...

CITY           SKY/WX    TMP DP  RH WIND       PRES   REMARKS
ALAMAGORDO     LGT RAIN  64  64 100 NW6       29.99R
ALBUQUERQUE    MOCLDY    64  56  75 N6        30.08S
CANNON AFB     CLOUDY    64  63  94 E5        30.05R
CLOVIS           N/A     64  63  94 E5        30.08R
HOLLOMAN AFB   MOCLDY    64  59  82 N3        29.97S
ROSWELL        LGT RAIN  68  66  93 NE3       29.98R
RUIDOSO        LGT RAIN  57  57 100 CALM      30.15R
SANTA FE       CLOUDY    58  51  78 NE5       30.14S
TRUTH OR CONSE PTCLDY    60  56  86 NW6       30.02R
TUCUMCARI      CLOUDY    63  59  87 CALM      30.03S
$$

USA.gov is the U.S. government's official web portal to all federal, state and local government web resources and services.